Regional Weather Roundup
Issued by NWS

Home | Current Version | Previous Version | Graphics & Text | Print | Product List | Glossary Off
Versions: 1 2 3 4 5 6 7 8 9 10 11 12 13 14 15 16 17 18 19 20 21 22 23 24 25 26 27 28 29 30 31 32 33 34 35 36 37 38 39 40 41 42 43 44 45 46 47 48 49 50

000
ASUS43 KLSX 271610
RWRMO

WEATHER SUMMARY FOR MISSOURI
NATIONAL WEATHER SERVICE SPRINGFIELD MO
1000 AM CST MON FEB 27 2017

NOTE: "FAIR" INDICATES FEW OR NO CLOUDS BELOW 12,000 FEET WITH NO
       SIGNIFICANT WEATHER AND/OR OBSTRUCTIONS TO VISIBILITY.
       CURRENT SKY AND/OR WEATHER CONDITIONS ARE NOT AVAILABLE FOR
       CHILLICOTHE AND FARMINGTON.

MOZ001>031-035>038-043-044-053-054-271700-
...NORTHERN AND WESTERN MISSOURI...

CITY           SKY/WX    TMP DP  RH WIND       PRES   REMARKS
KANSAS CTY INT SUNNY     46  33  60 SE13      30.03F
KANSAS C DTWN  SUNNY     41  35  79 NE3       30.04F
LEE`S SUMMIT   SUNNY     47  34  60 S12       30.05S
ST JOSEPH      SUNNY     43  37  79 SE5       30.03F
CHILLICOTHE      N/A     37  36  96 VRB3      30.10R
KIRKSVILLE     SUNNY     45  36  70 S7        30.10R

$$
MOZ066>068-077>081-088>096-101>105-271700-
...SOUTHWEST MISSOURI...

CITY           SKY/WX    TMP DP  RH WIND       PRES   REMARKS
SPRINGFIELD    SUNNY     52  35  52 S13       30.06R
JOPLIN         SUNNY     54  39  57 SE12      30.03F
BRANSON        MOSUNNY   50  36  57 SE5       30.08R

$$
MOZ032>034-039>042-045>050-055>058-069>072-271700-
...CENTRAL MISSOURI...

CITY           SKY/WX    TMP DP  RH WIND       PRES   REMARKS
COLUMBIA       SUNNY     49  35  58 S8        30.10R
JEFFERSON CITY SUNNY     43  36  76 SE6       30.11S
ROLLA          SUNNY     50  39  66 SW6       30.08S
SEDALIA        SUNNY     47  36  65 S5        30.09R
WHITEMAN AFB   SUNNY     48  42  79 S5        30.06S
WARRENSBURG    SUNNY     46  36  66 S7        30.07R
OSAGE BEACH    SUNNY     47  38  71 S6        30.10S

$$
MOZ051-052-059>065-271700-
...EAST CENTRAL MISSOURI...

CITY           SKY/WX    TMP DP  RH WIND       PRES   REMARKS
ST LOUIS INTL  SUNNY     52  38  58 S6        30.13S
SPIRIT OF STL  SUNNY     52  40  63 S8        30.13R
ST CHARLES     SUNNY     52  40  63 S7        30.13S

$$
MOZ072>076-082>087-097>100-106>115-271700-
...SOUTH CENTRAL AND SOUTHEAST MISSOURI...

CITY           SKY/WX    TMP DP  RH WIND       PRES   REMARKS
CAPE GIRARDEAU SUNNY     54  45  71 S9        30.15R
FARMINGTON     SUNNY     52  42  69 S8        30.13R
POPLAR BLUFF   SUNNY     54  45  71 SW6       30.14R
WEST PLAINS    SUNNY     51  42  71 S6        30.11R

$$



USA.gov is the U.S. government's official web portal to all federal, state and local government web resources and services.